Tracking 19832 objects as of 25-Aug-2019
HD Live streaming from Space Station
objects crossing your sky now

COSMOS 2251 DEB

Track COSMOS 2251 DEB now!
10-day predictions


NORAD ID: 34057
Int'l Code: 1993-036JU
Perigee: 695.6 km
Apogee: 739.4 km
Inclination: 74.0 °
Period: 99.0 minutes
Semi major axis: 7088 km
RCS: 0.092 m2 (small)
Launch date: June 16, 1993
Source: Commonwealth of Independent States (former USSR) (CIS)
Launch site: PLESETSK MISSILE AND SPACE COMPLEX (PKMTR)

Note: This is SATELLITE DEBRIS
aabbcc
Your satellite tracking list
Your tracking list is empty




NASA's NSSDC Master Catalog

Two Line Element Set (TLE):
1 34057U 93036JU  19236.94683337 +.00000214 +00000-0 +56610-4 0  9993
2 34057 074.0203 045.2560 0030839 358.9953 116.0877 14.54691048555382
Source of the keplerian elements: AFSPC